Terminal Aerodrome Forecast
Issued by NWS

Home | Current Version | Previous Version | Text Only | Print | Product List | Glossary On
Versions: 1 2 3 4 5 6 7 8 9 10 11 12 13 14 15 16 17
000
FTUS45 KCYS 181100 CCA
TAFLAR
TAF COR
KLAR 181159Z 1812/1912 22018G25KT P6SM BKN200
     FM181800 23024G35KT P6SM SCT080
     FM190200 22013G22KT P6SM BKN080
     FM190500 20010KT P6SM BKN080 OVC200=

USA.gov is the U.S. government's official web portal to all federal, state and local government web resources and services.